Gadsden, AL

9:27 AM CST on December 15, 2019 (GMT -0600)
Gadsden Municipal

Weather History for KGAD - November, 2019

Change the Weather History Date:

Friday, November 22, 2019

  Actual Average Record
Temperature  
Mean Temperature 52 °F -  
Max Temperature 63 °F 59 °F 79 °F (1940)
Min Temperature 42 °F 36 °F 15 °F (2008)
Degree Days  
Heating Degree Days 12    
Growing Degree Days 2 (Base 50)    
Moisture  
Dew Point 56 °F    
Average Humidity 97    
Maximum Humidity 100    
Minimum Humidity 75    
Precipitation  
Precipitation 0.38 in - - ()
Sea Level Pressure  
Sea Level Pressure 30.03 in    
Wind  
Wind Speed 0 mph ()    
Max Wind Speed 7 mph    
Max Gust Speed -    
Visibility 3.5 miles    
Events Fog , Rain    
Averages and records for this station are not official NWS values.
T = Trace of Precipitation, MM = Missing Value Source: Averaged Metar Reports

Daily Weather History Graph

Daily Weather History Graph

Search for Another Location

Airport or City:

Astronomy

Nov. 22, 2019 Rise Set
Actual Time 6:23 AM CST 4:37 PM CST
Civil Twilight 5:56 AM CST 5:04 PM CST
Nautical Twilight 5:25 AM CST 5:34 PM CST
Astronomical Twilight 4:55 AM CST 6:04 PM CST
Moon 1:45 AM CST (11/22) 2:22 PM CST (11/22)
Length of Visible Light 11h 08m
Length of Day
10h 14m
Waning Crescent, 19% of the Moon is Illuminated
Nov 22
Waning Crescent
Nov 26
New
Dec 4
First Quarter
Dec 11
Full
Dec 18
Last Quarter

Hourly Weather History & Observations

Time (CST) Temp. Dew Point Humidity Pressure Visibility Wind Dir Wind Speed Gust Speed Precip Events Conditions
12:56 AM 45.0 °F 45.0 °F 100% 30.14 in 9.0 mi Calm Calm - N/A   Partly Cloudy
1:22 AM 42.8 °F 41.0 °F 93% 30.12 in 1.8 mi Calm Calm - N/A   Clear
1:46 AM 42.8 °F 42.8 °F 100% 30.12 in 0.8 mi Calm Calm - N/A   Clear
1:53 AM 42.8 °F 42.8 °F 100% 30.12 in 1.2 mi Calm Calm - N/A   Clear
1:56 AM 43.0 °F 42.1 °F 97% 30.14 in 2.5 mi Calm Calm - N/A   Clear
2:03 AM 42.8 °F 42.8 °F 100% 30.12 in 4.0 mi Calm Calm - N/A   Clear
2:56 AM 43.0 °F 42.1 °F 97% 30.12 in 9.0 mi Calm Calm - N/A   Mostly Cloudy
3:53 AM 44.6 °F 44.6 °F 100% 30.09 in 8.0 mi Calm Calm - N/A   Mostly Cloudy
3:56 AM 45.0 °F 44.1 °F 97% 30.10 in 8.0 mi Calm Calm - N/A   Mostly Cloudy
4:56 AM 46.9 °F 46.0 °F 97% 30.13 in 10.0 mi Calm Calm - N/A   Overcast
5:21 AM 48.2 °F 46.4 °F 93% 30.11 in 10.0 mi Calm Calm - N/A   Overcast
5:56 AM 48.0 °F 46.9 °F 96% 30.13 in 10.0 mi NNW 3.5 mph - N/A   Overcast
6:23 AM 48.2 °F 46.4 °F 93% 30.11 in 10.0 mi Calm Calm - N/A   Overcast
6:56 AM 48.9 °F 46.9 °F 93% 30.12 in 10.0 mi Calm Calm - N/A   Scattered Clouds
8:56 AM 54.0 °F 50.0 °F 86% 30.12 in 10.0 mi Calm Calm - 0.00 in   Mostly Cloudy
9:56 AM 60.1 °F 52.0 °F 75% 30.08 in 10.0 mi SSW 6.9 mph - N/A   Mostly Cloudy
10:56 AM 61.0 °F 53.1 °F 75% 30.08 in 10.0 mi West 4.6 mph - N/A   Overcast
11:56 AM 62.1 °F 55.0 °F 78% 30.05 in 10.0 mi WSW 3.5 mph - 0.00 in   Overcast
12:56 PM 63.0 °F 57.0 °F 81% 30.01 in 10.0 mi Calm Calm - 0.00 in Rain Light Rain
2:56 PM 62.1 °F 61.0 °F 96% 30.02 in 10.0 mi Calm Calm - 0.03 in   Overcast
3:16 PM 62.6 °F 60.8 °F 94% 30.01 in 6.0 mi Calm Calm - 0.02 in Rain Rain
3:27 PM 62.6 °F 60.8 °F 94% 30.00 in 2.5 mi Calm Calm - 0.05 in Rain Rain
3:48 PM 62.6 °F 60.8 °F 94% 30.00 in 1.5 mi Calm Calm - 0.14 in Rain Rain
3:56 PM 62.1 °F 61.0 °F 96% 30.01 in 2.5 mi Calm Calm - 0.18 in Rain Rain
4:07 PM 60.8 °F 60.8 °F 100% 30.00 in 3.0 mi Calm Calm - 0.02 in Rain Light Rain
4:27 PM 60.8 °F 60.8 °F 100% 30.01 in 2.5 mi Calm Calm - 0.03 in Rain Light Rain
4:36 PM 60.8 °F 60.8 °F 100% 30.01 in 1.2 mi Calm Calm - 0.03 in Rain Light Rain
4:43 PM 60.8 °F 60.8 °F 100% 30.01 in 1.0 mi Calm Calm - 0.04 in Rain Light Rain
4:56 PM 61.0 °F 61.0 °F 100% 30.02 in 1.2 mi Calm Calm - 0.05 in Rain Light Rain
5:09 PM 60.8 °F 60.8 °F 100% 30.01 in 1.8 mi Calm Calm - 0.00 in Rain Light Rain
5:43 PM 60.8 °F 60.8 °F 100% 30.01 in 1.0 mi Calm Calm - 0.02 in Rain Light Rain
5:54 PM 60.8 °F 60.8 °F 100% 30.01 in 0.8 mi Calm Calm - 0.02 in Rain Light Rain
5:56 PM 61.0 °F 61.0 °F 100% 30.03 in 0.8 mi Calm Calm - 0.03 in Rain Light Rain
6:24 PM 60.8 °F 60.8 °F 100% 30.01 in 0.5 mi Calm Calm - 0.07 in Fog , Rain Light Rain
6:33 PM 60.8 °F 60.8 °F 100% 30.00 in 0.8 mi Calm Calm - 0.08 in Rain Light Rain
6:42 PM 60.8 °F 60.8 °F 100% 30.01 in 0.8 mi Calm Calm - 0.08 in Rain Light Rain
6:47 PM 60.8 °F 60.8 °F 100% 30.01 in 1.0 mi Calm Calm - 0.08 in Rain Light Rain
6:56 PM 61.0 °F 61.0 °F 100% 30.02 in 1.0 mi Calm Calm - 0.08 in Rain Light Rain
7:03 PM 60.8 °F 60.8 °F 100% 30.00 in 0.5 mi Calm Calm - 0.00 in Fog Fog
7:33 PM 60.8 °F 60.8 °F 100% 30.01 in 1.0 mi Calm Calm - 0.01 in   Overcast
7:56 PM 61.0 °F 61.0 °F 100% 30.01 in 1.5 mi Calm Calm - 0.01 in Rain Light Rain
8:02 PM 60.8 °F 60.8 °F 100% 30.00 in 0.8 mi Calm Calm - 0.00 in Rain Light Rain
8:19 PM 60.8 °F 60.8 °F 100% 30.00 in 1.2 mi Calm Calm - 0.00 in   Overcast
8:30 PM 60.8 °F 60.8 °F 100% 30.00 in 2.5 mi Calm Calm - 0.00 in   Overcast
8:49 PM 60.8 °F 60.8 °F 100% 30.00 in 1.8 mi Calm Calm - 0.00 in Rain Light Rain
8:56 PM 61.0 °F 61.0 °F 100% 30.01 in 3.0 mi Calm Calm - 0.00 in Rain Light Rain
9:06 PM 60.8 °F 60.8 °F 100% 30.00 in 1.8 mi Calm Calm - 0.00 in Rain Light Rain
9:14 PM 60.8 °F 60.8 °F 100% 29.99 in 0.8 mi Calm Calm - 0.00 in Rain Light Rain
9:37 PM 60.8 °F 60.8 °F 100% 29.99 in 0.5 mi Calm Calm - 0.00 in Fog Fog
9:43 PM 60.8 °F 60.8 °F 100% 29.99 in 0.8 mi Calm Calm - 0.00 in   Mostly Cloudy
9:46 PM 60.8 °F 60.8 °F 100% 29.99 in 0.5 mi Calm Calm - 0.00 in Fog Fog
9:56 PM 60.1 °F 60.1 °F 100% 30.00 in 0.5 mi Calm Calm - 0.00 in Fog Fog
10:11 PM 60.8 °F 60.8 °F 100% 29.98 in 0.5 mi Calm Calm - N/A Fog Fog
10:22 PM 60.8 °F 60.8 °F 100% 29.97 in 0.5 mi Calm Calm - N/A Fog Fog
10:56 PM 60.1 °F 60.1 °F 100% 29.98 in 0.5 mi Calm Calm - N/A Fog Fog
11:03 PM 60.8 °F 60.8 °F 100% 29.97 in 0.8 mi Calm Calm - N/A   Mostly Cloudy
11:17 PM 60.8 °F 60.8 °F 100% 29.96 in 1.2 mi Calm Calm - N/A   Mostly Cloudy
11:28 PM 60.8 °F 60.8 °F 100% 29.96 in 2.5 mi Calm Calm - N/A   Overcast
11:56 PM 60.1 °F 60.1 °F 100% 29.96 in 0.8 mi Calm Calm - N/A   Mostly Cloudy